Kristian Aasvold

Norway, 28 years

Kristian Aasvold is a 28 year old cyclist from Norway (born May 30th 1995). He is currently ranked 2061th in the UCI Ranking.

Information

2023 2022 2021 2020 2019 2018 2017 2016 2015 2014

Human Powered Health (ProTeam) UCI Ranking: 1824 (15pts)
All Flat Hilly Mountain Time Trial
Date Pos GC Race UCI
14.08 Arctic Race of Norway | 2.Pro 2022-08-14 Show more
14.08 19 Arctic Race of Norway | Overall 2022-08-145
31.07 36 Circuito de Getxo | 1.1 2022-07-31Show more
25.07 76 Villafranca de Ordizia | 1.1 2022-07-25Show more
19.06 Tour de Suisse | 2.UWT 2022-06-19 Show more
19.06 54 Tour de Suisse | Overall 2022-06-195
26.06 53 Norway RR | CN 2022-06-26Show more
10.06 DNF GP Kanton Aargau | 1.1 2022-06-10Show more
29.05 Tour of Norway | 2.Pro 2022-05-29 Show more
29.05 DNF Tour of Norway | Overall 2022-05-29
01.05 Tour of Hellas | 2.1 2022-05-01 Show more
01.05 34 Tour of Hellas | Overall 2022-05-01
15.04 Giro di Sicilia | 2.1 2022-04-15 Show more
15.04 75 Giro di Sicilia | Overall 2022-04-15
02.04 106 GP Miguel Indurain | 1.Pro 2022-04-02Show more
20.03 38 Per Sempre Alfredo | 1.1 2022-03-20Show more
27.02 O Gran Camiño | 2.1 2022-02-27 Show more
27.02 75 O Gran Camiño | Overall 2022-02-27
16.09 56 Kamp. van Vlaanderen | 1.1 2022-09-16Show more
18.09 56 Gooikse Pijl | 1.1 2022-09-18Show more
11.09 Tour of Britain | 2.Pro 2022-09-11 Show more
11.09 26 Tour of Britain | Overall 2022-09-115
02.10 CRO Race | 2.1 2022-10-02 Show more
02.10 52 CRO Race | Overall 2022-10-02
06.02 Volta Comunitat Valenciana | 2.Pro 2022-02-06 Show more
06.02 46 Volta Comunitat Valenciana | Overall 2022-02-06
14.08 28 Arctic Race of Norway | Points 2022-08-14
11.09 36 Tour of Britain | Points 2022-09-11
02.10 7752 CRO Race | 6th stage 2022-10-02
01.10 6952 CRO Race | 5th stage 2022-10-01
30.09 3117 CRO Race | 4th stage 2022-09-30
29.09 1716 CRO Race | 3rd stage 2022-09-29
28.09 2426 CRO Race | 2nd stage 2022-09-28
27.09 3031 CRO Race | 1st stage 2022-09-27
08.09 8226 Tour of Britain | 5th stage 2022-09-08
07.09 2019 Tour of Britain | 4th stage 2022-09-07
06.09 3619 Tour of Britain | 3rd stage 2022-09-06
05.09 1315 Tour of Britain | 2nd stage 2022-09-05
04.09 3535 Tour of Britain | 1st stage 2022-09-04
14.08 2419 Arctic Race of Norway | 4th stage 2022-08-14
13.08 2920 Arctic Race of Norway | 3rd stage 2022-08-13
12.08 367 Arctic Race of Norway | 2nd stage 2022-08-12
11.08 164 Arctic Race of Norway | 1st stage 2022-08-11
19.06 3254 Tour de Suisse | 8th stage 2022-06-19
18.06 4757 Tour de Suisse | 7th stage 2022-06-18
17.06 5062 Tour de Suisse | 6th stage 2022-06-17
16.06 7591 Tour de Suisse | 5th stage 2022-06-16
15.06 7194 Tour de Suisse | 4th stage 2022-06-15
14.06 24110 Tour de Suisse | 3rd stage 2022-06-14
13.06 125125 Tour de Suisse | 2nd stage 2022-06-13
12.06 118118 Tour de Suisse | 1st stage 2022-06-12
29.05 DNF Tour of Norway | 6th stage 2022-05-29
28.05 6723 Tour of Norway | 5th stage 2022-05-28
27.05 4922 Tour of Norway | 4th stage 2022-05-27
26.05 2524 Tour of Norway | 3rd stage 2022-05-26
25.05 3928 Tour of Norway | 2nd stage 2022-05-25
24.05 1212 Tour of Norway | 1st stage 2022-05-24
01.05 6234 Tour of Hellas | 5th stage 2022-05-01
30.04 1521 Tour of Hellas | 4th stage 2022-04-30
29.04 4221 Tour of Hellas | 3rd stage 2022-04-29
28.04 3317 Tour of Hellas | 2nd stage 2022-04-28
27.04 1818 Tour of Hellas | 1st stage 2022-04-27
15.04 8375 Giro di Sicilia | 4th stage 2022-04-15
14.04 5764 Giro di Sicilia | 3rd stage 2022-04-14
13.04 7271 Giro di Sicilia | 2nd stage 2022-04-13
12.04 7474 Giro di Sicilia | 1st stage 2022-04-12
27.02 4675 O Gran Camiño | 4th stage 2022-02-27
26.02 9474 O Gran Camiño | 3rd stage 2022-02-26
25.02 4545 O Gran Camiño | 2nd stage 2022-02-25
24.02 2328 O Gran Camiño | 1st stage 2022-02-24
06.02 10846 Volta Comunitat Valenciana | 5th stage 2022-02-06
05.02 4747 Volta Comunitat Valenciana | 4th stage 2022-02-05
04.02 5653 Volta Comunitat Valenciana | 3rd stage 2022-02-04
03.02 11468 Volta Comunitat Valenciana | 2nd stage 2022-02-03
02.02 7273 Volta Comunitat Valenciana | 1st stage 2022-02-02